START_TIME,STEP,MOV.,P11,t_acc.,P23,t_acc.,P27,t_acc.,A4,t_acc.
1979-03-08 15:00:21.050 ,3,0,0.,4.8,0.,4.8,0.,4.8,0.,4.8
1979-03-08 15:00:25.850 ,3,0,0.,4.8,0.,4.8,0.,4.8,0.,4.8
1979-03-08 15:00:30.650 ,3,0,1.,4.8,0.,4.8,0.,4.8,0.,4.8
1979-03-08 15:00:35.450 ,3,0,0.,4.8,0.,4.8,0.,4.8,0.,4.8
1979-03-08 15:00:40.250 ,3,0,0.,4.8,0.,4.8,0.,4.8,0.,4.8
1979-03-08 15:00:45.050 ,2,0,0.,4.8,0.,4.8,0.,4.8,0.,4.8
1979-03-08 15:00:49.850 ,2,0,1.,4.8,0.,4.8,0.,4.8,0.,4.8
1979-03-08 15:00:54.650 ,2,0,0.,4.8,0.,4.8,0.,4.8,0.,4.8
1979-03-08 15:00:59.450 ,2,0,0.,4.8,0.,4.8,0.,4.8,0.,4.8
1979-03-08 15:01:04.250 ,2,0,0.,4.8,0.,4.8,0.,4.8,0.,4.8
1979-03-08 15:01:09.050 ,1,0,1.,4.8,0.,4.8,0.,4.8,0.,4.8
1979-03-08 15:01:13.850 ,1,0,1.,4.8,0.,4.8,0.,4.8,0.,4.8
1979-03-08 15:01:18.650 ,1,0,0.,4.8,0.,4.8,0.,4.8,0.,4.8
1979-03-08 15:01:23.450 ,1,0,0.,4.8,0.,4.8,0.,4.8,0.,4.8
1979-03-08 15:01:28.250 ,1,0,1.,4.8,0.,4.8,0.,4.8,0.,4.8
1979-03-08 15:01:33.050 ,0,0,2.,4.8,0.,4.8,0.,4.8,0.,4.8
1979-03-08 15:01:37.850 ,0,0,1.,4.8,0.,4.8,0.,4.8,0.,4.8
1979-03-08 15:01:42.650 ,0,0,2.,4.8,0.,4.8,0.,4.8,0.,4.8
1979-03-08 15:01:47.450 ,0,0,1.,4.8,0.,4.8,0.,4.8,0.,4.8
1979-03-08 15:01:52.250 ,0,0,1.,4.8,0.,4.8,0.,4.8,0.,4.8
1979-03-08 15:01:57.050 ,0,0,0.,4.8,0.,4.8,0.,4.8,0.,4.8
1979-03-08 15:02:01.850 ,0,0,1.,4.8,0.,4.8,0.,4.8,0.,4.8
1979-03-08 15:02:06.650 ,0,0,1.,4.8,0.,4.8,0.,4.8,0.,4.8
1979-03-08 15:02:11.450 ,0,0,1.,4.8,0.,4.8,0.,4.8,0.,4.8
1979-03-08 15:02:16.250 ,0,0,1.,4.8,0.,4.8,0.,4.8,0.,4.8
1979-03-08 15:02:21.050 ,1,0,0.,4.8,0.,4.8,0.,4.8,0.,4.8
1979-03-08 15:02:25.850 ,1,0,0.,4.8,0.,4.8,0.,4.8,0.,4.8
1979-03-08 15:02:30.650 ,1,0,1.,4.8,0.,4.8,0.,4.8,0.,4.8
1979-03-08 15:02:35.450 ,1,0,0.,4.8,0.,4.8,0.,4.8,0.,4.8
1979-03-08 15:02:40.250 ,1,0,0.,4.8,0.,4.8,0.,4.8,0.,4.8
1979-03-08 15:02:45.050 ,2,0,0.,4.8,0.,4.8,0.,4.8,0.,4.8
1979-03-08 15:02:49.850 ,2,0,3.,4.8,0.,4.8,0.,4.8,0.,4.8
1979-03-08 15:02:54.650 ,2,0,0.,4.8,0.,4.8,0.,4.8,0.,4.8
1979-03-08 15:02:59.450 ,2,0,0.,4.8,0.,4.8,0.,4.8,0.,4.8
1979-03-08 15:03:04.250 ,2,0,1.,4.8,0.,4.8,0.,4.8,0.,4.8
1979-03-08 15:03:09.050 ,3,0,2.,4.8,0.,4.8,0.,4.8,0.,4.8
1979-03-08 15:03:13.850 ,3,0,1.,4.8,0.,4.8,0.,4.8,0.,4.8
1979-03-08 15:03:18.650 ,3,0,1.,4.8,0.,4.8,0.,4.8,0.,4.8
1979-03-08 15:03:23.450 ,3,0,0.,4.8,0.,4.8,0.,4.8,0.,4.8
1979-03-08 15:03:28.250 ,3,0,2.,4.8,0.,4.8,0.,4.8,0.,4.8
1979-03-08 15:03:33.050 ,4,0,0.,4.8,0.,4.8,0.,4.8,0.,4.8
1979-03-08 15:03:37.850 ,4,0,0.,4.8,0.,4.8,0.,4.8,0.,4.8
1979-03-08 15:03:42.650 ,4,0,0.,4.8,0.,4.8,0.,4.8,0.,4.8
1979-03-08 15:03:47.450 ,4,0,2.,4.8,0.,4.8,0.,4.8,0.,4.8
1979-03-08 15:03:52.250 ,4,0,0.,4.8,0.,4.8,0.,4.8,0.,4.8
1979-03-08 15:03:57.050 ,5,0,0.,4.8,0.,4.8,0.,4.8,0.,4.8
1979-03-08 15:04:01.850 ,5,0,1.,4.8,0.,4.8,0.,4.8,0.,4.8
1979-03-08 15:04:06.650 ,5,0,0.,4.8,0.,4.8,0.,4.8,0.,4.8
1979-03-08 15:04:11.450 ,5,0,2.,4.8,0.,4.8,0.,4.8,0.,4.8
1979-03-08 15:04:16.250 ,5,0,0.,4.8,0.,4.8,0.,4.8,0.,4.8
1979-03-08 15:04:21.050 ,6,0,0.,4.8,0.,4.8,0.,4.8,0.,4.8
1979-03-08 15:04:25.850 ,6,0,0.,4.8,0.,4.8,0.,4.8,0.,4.8
1979-03-08 15:04:30.650 ,6,0,0.,4.8,0.,4.8,0.,4.8,0.,4.8
1979-03-08 15:04:35.450 ,6,0,1.,4.8,0.,4.8,0.,4.8,0.,4.8
1979-03-08 15:04:40.250 ,6,0,0.,4.8,0.,4.8,0.,4.8,0.,4.8
1979-03-08 15:04:45.050 ,7,0,0.,4.8,0.,4.8,0.,4.8,0.,4.8
1979-03-08 15:04:49.850 ,7,0,1.,4.8,0.,4.8,0.,4.8,0.,4.8
1979-03-08 15:04:54.650 ,7,0,2.,4.8,0.,4.8,0.,4.8,0.,4.8
1979-03-08 15:04:59.450 ,7,0,0.,4.8,0.,4.8,0.,4.8,0.,4.8
1979-03-08 15:05:04.250 ,7,0,0.,4.8,0.,4.8,0.,4.8,0.,4.8
1979-03-08 15:05:09.050 ,7,0,0.,4.8,0.,4.8,0.,4.8,0.,4.8
1979-03-08 15:05:13.850 ,7,0,1.,4.8,0.,4.8,0.,4.8,0.,4.8
1979-03-08 15:05:18.650 ,7,0,0.,4.8,0.,4.8,0.,4.8,0.,4.8
1979-03-08 15:05:23.450 ,7,0,0.,4.8,0.,4.8,0.,4.8,0.,4.8
1979-03-08 15:05:28.250 ,7,0,0.,4.8,0.,4.8,0.,4.8,0.,4.8
1979-03-08 15:05:33.050 ,6,0,0.,4.8,0.,4.8,0.,4.8,0.,4.8
1979-03-08 15:05:37.850 ,6,0,1.,4.8,0.,4.8,0.,4.8,0.,4.8
1979-03-08 15:05:42.650 ,6,0,1.,4.8,0.,4.8,0.,4.8,0.,4.8
1979-03-08 15:05:47.450 ,6,0,5.,4.8,0.,4.8,0.,4.8,1.,4.8
1979-03-08 15:05:52.250 ,6,0,0.,4.8,0.,4.8,0.,4.8,0.,4.8
1979-03-08 15:05:57.050 ,5,0,1.,4.8,0.,4.8,0.,4.8,0.,4.8
1979-03-08 15:06:01.850 ,5,0,0.,4.8,0.,4.8,0.,4.8,0.,4.8
1979-03-08 15:06:06.650 ,5,0,1.,4.8,0.,4.8,0.,4.8,0.,4.8
1979-03-08 15:06:11.450 ,5,0,2.,4.8,0.,4.8,0.,4.8,0.,4.8
1979-03-08 15:06:16.250 ,5,0,2.,4.8,0.,4.8,0.,4.8,0.,4.8
1979-03-08 15:06:21.050 ,4,0,1.,4.8,0.,4.8,0.,4.8,0.,4.8
1979-03-08 15:06:25.850 ,4,0,2.,4.8,0.,4.8,0.,4.8,0.,4.8
1979-03-08 15:06:30.650 ,4,0,0.,4.8,0.,4.8,0.,4.8,0.,4.8
1979-03-08 15:06:35.450 ,4,0,0.,4.8,0.,4.8,0.,4.8,0.,4.8
1979-03-08 15:06:40.250 ,4,0,1.,4.8,0.,4.8,0.,4.8,0.,4.8
1979-03-08 15:06:45.050 ,3,0,0.,4.8,0.,4.8,0.,4.8,0.,4.8
1979-03-08 15:06:49.850 ,3,0,0.,4.8,0.,4.8,0.,4.8,0.,4.8
1979-03-08 15:06:54.650 ,3,0,1.,4.8,0.,4.8,0.,4.8,0.,4.8
1979-03-08 15:06:59.450 ,3,0,0.,4.8,0.,4.8,0.,4.8,0.,4.8
1979-03-08 15:07:04.250 ,3,0,0.,4.8,0.,4.8,0.,4.8,0.,4.8
1979-03-08 15:07:09.050 ,2,0,1.,4.8,0.,4.8,0.,4.8,0.,4.8
1979-03-08 15:07:13.850 ,2,0,2.,4.8,0.,4.8,0.,4.8,0.,4.8
1979-03-08 15:07:18.650 ,2,0,2.,4.8,0.,4.8,0.,4.8,0.,4.8
1979-03-08 15:07:23.450 ,2,0,1.,4.8,0.,4.8,0.,4.8,0.,4.8
1979-03-08 15:07:28.250 ,2,0,2.,4.8,0.,4.8,0.,4.8,0.,4.8
1979-03-08 15:07:33.050 ,1,0,2.,4.8,0.,4.8,0.,4.8,0.,4.8
1979-03-08 15:07:37.850 ,1,0,1.,4.8,0.,4.8,0.,4.8,0.,4.8
1979-03-08 15:07:42.650 ,1,0,2.,4.8,0.,4.8,0.,4.8,0.,4.8
1979-03-08 15:07:47.450 ,1,0,1.,4.8,0.,4.8,0.,4.8,0.,4.8
1979-03-08 15:07:52.250 ,1,0,1.,4.8,0.,4.8,0.,4.8,0.,4.8
1979-03-08 15:07:57.050 ,0,0,0.,4.8,0.,4.8,0.,4.8,0.,4.8
1979-03-08 15:08:01.850 ,0,0,0.,4.8,0.,4.8,0.,4.8,0.,4.8
1979-03-08 15:08:06.650 ,0,0,1.,4.8,0.,4.8,0.,4.8,0.,4.8
1979-03-08 15:08:11.450 ,0,0,0.,4.8,0.,4.8,0.,4.8,0.,4.8
1979-03-08 15:08:16.250 ,0,0,2.,4.8,0.,4.8,0.,4.8,0.,4.8
1979-03-08 15:08:21.050 ,0,0,0.,4.8,0.,4.8,0.,4.8,0.,4.8
1979-03-08 15:08:25.850 ,0,0,0.,4.8,0.,4.8,0.,4.8,0.,4.8
1979-03-08 15:08:30.650 ,0,0,1.,4.8,0.,4.8,0.,4.8,0.,4.8
1979-03-08 15:08:35.450 ,0,0,2.,4.8,0.,4.8,0.,4.8,0.,4.8
1979-03-08 15:08:40.250 ,0,0,0.,4.8,0.,4.8,0.,4.8,0.,4.8
1979-03-08 15:08:45.050 ,1,0,2.,4.8,0.,4.8,0.,4.8,0.,4.8
1979-03-08 15:08:49.850 ,1,0,1.,4.8,0.,4.8,0.,4.8,0.,4.8
1979-03-08 15:08:54.650 ,1,0,2.,4.8,0.,4.8,0.,4.8,0.,4.8
1979-03-08 15:08:59.450 ,1,0,1.,4.8,0.,4.8,0.,4.8,0.,4.8
1979-03-08 15:09:04.250 ,1,0,0.,4.8,0.,4.8,0.,4.8,0.,4.8
1979-03-08 15:09:09.050 ,2,0,1.,4.8,0.,4.8,0.,4.8,0.,4.8
1979-03-08 15:09:13.850 ,2,0,3.,4.8,0.,4.8,0.,4.8,0.,4.8
1979-03-08 15:09:18.650 ,2,0,0.,4.8,0.,4.8,0.,4.8,0.,4.8
1979-03-08 15:09:23.450 ,2,0,2.,4.8,0.,4.8,0.,4.8,0.,4.8
1979-03-08 15:09:28.250 ,2,0,1.,4.8,0.,4.8,0.,4.8,0.,4.8
1979-03-08 15:09:33.050 ,3,0,0.,4.8,0.,4.8,0.,4.8,0.,4.8
1979-03-08 15:09:37.850 ,3,0,2.,4.8,0.,4.8,0.,4.8,0.,4.8
1979-03-08 15:09:42.650 ,3,0,1.,4.8,0.,4.8,0.,4.8,0.,4.8
1979-03-08 15:09:47.450 ,3,0,1.,4.8,0.,4.8,0.,4.8,0.,4.8
1979-03-08 15:09:52.250 ,3,0,1.,4.8,0.,4.8,0.,4.8,0.,4.8
1979-03-08 15:09:57.050 ,4,0,3.,4.8,0.,4.8,0.,4.8,0.,4.8
1979-03-08 15:10:01.850 ,4,0,0.,4.8,0.,4.8,0.,4.8,0.,4.8
1979-03-08 15:10:06.650 ,4,0,1.,4.8,0.,4.8,0.,4.8,0.,4.8
1979-03-08 15:10:11.450 ,4,0,0.,4.8,0.,4.8,0.,4.8,0.,4.8
1979-03-08 15:10:16.250 ,4,0,0.,4.8,0.,4.8,0.,4.8,0.,4.8
1979-03-08 15:10:21.050 ,5,0,3.,4.8,0.,4.8,0.,4.8,0.,4.8
1979-03-08 15:10:25.850 ,5,0,1.,4.8,0.,4.8,0.,4.8,0.,4.8
1979-03-08 15:10:30.650 ,5,0,0.,4.8,0.,4.8,0.,4.8,0.,4.8
1979-03-08 15:10:35.450 ,5,0,0.,4.8,0.,4.8,0.,4.8,0.,4.8
1979-03-08 15:10:40.250 ,5,0,0.,4.8,0.,4.8,0.,4.8,0.,4.8
1979-03-08 15:10:45.050 ,6,0,0.,4.8,0.,4.8,0.,4.8,0.,4.8
1979-03-08 15:10:49.850 ,6,0,0.,4.8,0.,4.8,0.,4.8,0.,4.8
1979-03-08 15:10:54.650 ,6,0,1.,4.8,0.,4.8,0.,4.8,0.,4.8
1979-03-08 15:10:59.450 ,6,0,3.,4.8,0.,4.8,0.,4.8,0.,4.8
1979-03-08 15:11:04.250 ,6,0,0.,4.8,0.,4.8,0.,4.8,0.,4.8
1979-03-08 15:11:09.050 ,7,0,1.,4.8,0.,4.8,0.,4.8,0.,4.8
1979-03-08 15:11:13.850 ,7,0,1.,4.8,0.,4.8,0.,4.8,0.,4.8
1979-03-08 15:11:18.650 ,7,0,1.,4.8,0.,4.8,0.,4.8,0.,4.8
1979-03-08 15:11:23.450 ,7,0,0.,4.8,0.,4.8,0.,4.8,0.,4.8
1979-03-08 15:11:28.250 ,7,0,0.,4.8,0.,4.8,0.,4.8,0.,4.8
1979-03-08 15:11:33.050 ,7,0,0.,4.8,0.,4.8,0.,4.8,0.,4.8
1979-03-08 15:11:37.850 ,7,0,0.,4.8,0.,4.8,0.,4.8,0.,4.8
1979-03-08 15:11:42.650 ,7,0,0.,4.8,0.,4.8,0.,4.8,0.,4.8
1979-03-08 15:11:47.450 ,7,0,1.,4.8,0.,4.8,0.,4.8,0.,4.8
1979-03-08 15:11:52.250 ,7,0,0.,4.8,0.,4.8,0.,4.8,0.,4.8
1979-03-08 15:11:57.050 ,6,0,0.,4.8,0.,4.8,0.,4.8,0.,4.8
1979-03-08 15:12:01.850 ,6,0,0.,4.8,0.,4.8,0.,4.8,0.,4.8
1979-03-08 15:12:06.650 ,6,0,0.,4.8,0.,4.8,0.,4.8,0.,4.8
1979-03-08 15:12:11.450 ,6,0,0.,4.8,0.,4.8,0.,4.8,0.,4.8
1979-03-08 15:12:16.250 ,6,0,1.,4.8,0.,4.8,0.,4.8,0.,4.8
1979-03-08 15:12:21.050 ,5,0,2.,4.8,0.,4.8,0.,4.8,0.,4.8
1979-03-08 15:12:25.850 ,5,0,1.,4.8,0.,4.8,0.,4.8,0.,4.8
1979-03-08 15:12:30.650 ,5,0,0.,4.8,0.,4.8,0.,4.8,0.,4.8
1979-03-08 15:12:35.450 ,5,0,2.,4.8,0.,4.8,0.,4.8,0.,4.8
1979-03-08 15:12:40.250 ,5,0,2.,4.8,0.,4.8,0.,4.8,0.,4.8
1979-03-08 15:12:45.050 ,4,0,2.,4.8,0.,4.8,0.,4.8,0.,4.8
1979-03-08 15:12:49.850 ,4,0,0.,4.8,0.,4.8,0.,4.8,0.,4.8
1979-03-08 15:12:54.650 ,4,0,0.,4.8,0.,4.8,0.,4.8,0.,4.8
1979-03-08 15:12:59.450 ,4,0,0.,4.8,0.,4.8,0.,4.8,0.,4.8
1979-03-08 15:13:04.250 ,4,0,1.,4.8,0.,4.8,0.,4.8,0.,4.8
1979-03-08 15:13:09.050 ,3,0,1.,4.8,0.,4.8,0.,4.8,0.,4.8
1979-03-08 15:13:13.850 ,3,0,2.,4.8,0.,4.8,0.,4.8,0.,4.8
1979-03-08 15:13:18.650 ,3,0,0.,4.8,0.,4.8,0.,4.8,0.,4.8
1979-03-08 15:13:23.450 ,3,0,1.,4.8,0.,4.8,0.,4.8,0.,4.8
1979-03-08 15:13:28.250 ,3,0,0.,4.8,0.,4.8,0.,4.8,0.,4.8
1979-03-08 15:13:33.050 ,2,0,0.,4.8,0.,4.8,0.,4.8,0.,4.8
1979-03-08 15:13:37.850 ,2,0,1.,4.8,0.,4.8,0.,4.8,0.,4.8
1979-03-08 15:13:42.650 ,2,0,2.,4.8,0.,4.8,0.,4.8,0.,4.8
1979-03-08 15:13:47.450 ,2,0,3.,4.8,0.,4.8,0.,4.8,1.,4.8
1979-03-08 15:13:52.250 ,2,0,0.,4.8,0.,4.8,0.,4.8,0.,4.8
1979-03-08 15:13:57.050 ,1,0,0.,4.8,0.,4.8,0.,4.8,0.,4.8
1979-03-08 15:14:01.850 ,1,0,1.,4.8,0.,4.8,0.,4.8,0.,4.8
1979-03-08 15:14:06.650 ,1,0,0.,4.8,0.,4.8,0.,4.8,0.,4.8
1979-03-08 15:14:11.450 ,1,0,1.,4.8,0.,4.8,0.,4.8,0.,4.8
1979-03-08 15:14:16.250 ,1,0,1.,4.8,0.,4.8,0.,4.8,0.,4.8
1979-03-08 15:14:21.050 ,0,0,0.,4.8,0.,4.8,0.,4.8,0.,4.8
1979-03-08 15:14:25.850 ,0,0,0.,4.8,0.,4.8,0.,4.8,0.,4.8
1979-03-08 15:14:30.650 ,0,0,0.,4.8,0.,4.8,0.,4.8,0.,4.8
1979-03-08 15:14:35.450 ,0,0,2.,4.8,0.,4.8,0.,4.8,0.,4.8
1979-03-08 15:14:40.250 ,0,0,2.,4.8,0.,4.8,0.,4.8,0.,4.8
1979-03-08 15:14:45.050 ,0,0,2.,4.8,0.,4.8,0.,4.8,0.,4.8
1979-03-08 15:14:49.850 ,0,0,1.,4.8,0.,4.8,0.,4.8,0.,4.8
1979-03-08 15:14:54.650 ,0,0,0.,4.8,0.,4.8,0.,4.8,0.,4.8
1979-03-08 15:14:59.450 ,0,0,1.,4.8,0.,4.8,0.,4.8,0.,4.8
1979-03-08 15:15:04.250 ,0,0,0.,4.8,0.,4.8,0.,4.8,0.,4.8
1979-03-08 15:15:09.050 ,1,0,0.,4.8,0.,4.8,0.,4.8,0.,4.8
1979-03-08 15:15:13.850 ,1,0,1.,4.8,0.,4.8,0.,4.8,0.,4.8
1979-03-08 15:15:18.650 ,1,0,1.,4.8,0.,4.8,0.,4.8,0.,4.8
1979-03-08 15:15:23.450 ,1,0,1.,4.8,0.,4.8,0.,4.8,0.,4.8
1979-03-08 15:15:28.250 ,1,0,2.,4.8,0.,4.8,0.,4.8,0.,4.8
1979-03-08 15:15:33.050 ,2,0,1.,4.8,0.,4.8,0.,4.8,0.,4.8
1979-03-08 15:15:37.850 ,2,0,1.,4.8,0.,4.8,0.,4.8,0.,4.8
1979-03-08 15:15:42.650 ,2,0,1.,4.8,0.,4.8,0.,4.8,0.,4.8
1979-03-08 15:15:47.450 ,2,0,0.,4.8,0.,4.8,0.,4.8,0.,4.8
1979-03-08 15:15:52.250 ,2,0,1.,4.8,0.,4.8,0.,4.8,0.,4.8
1979-03-08 15:15:57.050 ,3,0,1.,4.8,0.,4.8,0.,4.8,0.,4.8
1979-03-08 15:16:01.860 ,3,0,2.,4.8,0.,4.8,0.,4.8,0.,4.8
1979-03-08 15:16:06.660 ,3,0,0.,4.8,0.,4.8,0.,4.8,0.,4.8
1979-03-08 15:16:11.460 ,3,0,0.,4.8,0.,4.8,0.,4.8,0.,4.8
1979-03-08 15:16:16.260 ,3,0,1.,4.8,0.,4.8,0.,4.8,0.,4.8
1979-03-08 15:16:21.050 ,4,0,0.,4.8,0.,4.8,0.,4.8,0.,4.8
1979-03-08 15:16:25.860 ,4,0,2.,4.8,0.,4.8,0.,4.8,0.,4.8
1979-03-08 15:16:30.660 ,4,0,1.,4.8,0.,4.8,0.,4.8,0.,4.8
1979-03-08 15:16:35.460 ,4,0,0.,4.8,0.,4.8,0.,4.8,0.,4.8
1979-03-08 15:16:40.260 ,4,0,0.,4.8,0.,4.8,0.,4.8,0.,4.8
1979-03-08 15:16:45.050 ,5,0,0.,4.8,0.,4.8,0.,4.8,0.,4.8
1979-03-08 15:16:49.860 ,5,0,0.,4.8,0.,4.8,0.,4.8,0.,4.8
1979-03-08 15:16:54.660 ,5,0,1.,4.8,0.,4.8,0.,4.8,0.,4.8
1979-03-08 15:16:59.460 ,5,0,0.,4.8,0.,4.8,0.,4.8,0.,4.8
1979-03-08 15:17:04.260 ,5,0,1.,4.8,0.,4.8,0.,4.8,0.,4.8
1979-03-08 15:17:09.050 ,6,0,0.,4.8,0.,4.8,0.,4.8,0.,4.8
1979-03-08 15:17:13.850 ,6,0,0.,4.8,0.,4.8,0.,4.8,0.,4.8
1979-03-08 15:17:18.650 ,6,0,3.,4.8,0.,4.8,0.,4.8,0.,4.8
1979-03-08 15:17:23.450 ,6,0,0.,4.8,0.,4.8,0.,4.8,0.,4.8
1979-03-08 15:17:28.260 ,6,0,1.,4.8,0.,4.8,0.,4.8,0.,4.8
1979-03-08 15:17:33.050 ,7,0,1.,4.8,0.,4.8,0.,4.8,0.,4.8
1979-03-08 15:17:37.850 ,7,0,4.,4.8,0.,4.8,0.,4.8,0.,4.8
1979-03-08 15:17:42.650 ,7,0,0.,4.8,0.,4.8,0.,4.8,0.,4.8
1979-03-08 15:17:47.450 ,7,0,0.,4.8,0.,4.8,0.,4.8,0.,4.8
1979-03-08 15:17:52.260 ,7,0,0.,4.8,0.,4.8,0.,4.8,0.,4.8
1979-03-08 15:17:57.050 ,7,0,0.,4.8,0.,4.8,0.,4.8,0.,4.8
1979-03-08 15:18:01.850 ,7,0,1.,4.8,0.,4.8,0.,4.8,0.,4.8
1979-03-08 15:18:06.650 ,7,0,0.,4.8,0.,4.8,0.,4.8,0.,4.8
1979-03-08 15:18:11.450 ,7,0,2.,4.8,0.,4.8,0.,4.8,0.,4.8
1979-03-08 15:18:16.260 ,7,0,0.,4.8,0.,4.8,0.,4.8,0.,4.8
1979-03-08 15:18:21.050 ,6,0,0.,4.8,0.,4.8,0.,4.8,0.,4.8
1979-03-08 15:18:25.850 ,6,0,0.,4.8,0.,4.8,0.,4.8,0.,4.8
1979-03-08 15:18:30.650 ,6,0,0.,4.8,0.,4.8,0.,4.8,0.,4.8
1979-03-08 15:18:35.450 ,6,0,0.,4.8,0.,4.8,0.,4.8,0.,4.8
1979-03-08 15:18:40.260 ,6,0,1.,4.8,0.,4.8,0.,4.8,0.,4.8
1979-03-08 15:18:45.050 ,5,0,0.,4.8,0.,4.8,0.,4.8,0.,4.8
1979-03-08 15:18:49.850 ,5,0,2.,4.8,0.,4.8,0.,4.8,0.,4.8
1979-03-08 15:18:54.650 ,5,0,1.,4.8,0.,4.8,0.,4.8,0.,4.8
1979-03-08 15:18:59.450 ,5,0,1.,4.8,0.,4.8,0.,4.8,0.,4.8
1979-03-08 15:19:04.260 ,5,0,1.,4.8,0.,4.8,0.,4.8,0.,4.8
1979-03-08 15:19:09.050 ,4,0,1.,4.8,0.,4.8,0.,4.8,0.,4.8
1979-03-08 15:19:13.850 ,4,0,2.,4.8,0.,4.8,0.,4.8,0.,4.8
1979-03-08 15:19:18.650 ,4,0,0.,4.8,0.,4.8,0.,4.8,0.,4.8
1979-03-08 15:19:23.450 ,4,0,1.,4.8,0.,4.8,0.,4.8,0.,4.8
1979-03-08 15:19:28.260 ,4,0,1.,4.8,0.,4.8,0.,4.8,0.,4.8
1979-03-08 15:19:33.050 ,3,0,1.,4.8,0.,4.8,0.,4.8,0.,4.8
1979-03-08 15:19:37.850 ,3,0,1.,4.8,0.,4.8,0.,4.8,0.,4.8
1979-03-08 15:19:42.650 ,3,0,3.,4.8,0.,4.8,0.,4.8,0.,4.8
1979-03-08 15:19:47.450 ,3,0,2.,4.8,0.,4.8,0.,4.8,0.,4.8
1979-03-08 15:19:52.260 ,3,0,2.,4.8,0.,4.8,0.,4.8,0.,4.8
1979-03-08 15:19:57.050 ,2,0,0.,4.8,0.,4.8,0.,4.8,0.,4.8
1979-03-08 15:20:01.850 ,2,0,1.,4.8,0.,4.8,0.,4.8,0.,4.8
1979-03-08 15:20:06.650 ,2,0,0.,4.8,0.,4.8,0.,4.8,0.,4.8
1979-03-08 15:20:11.450 ,2,0,0.,4.8,0.,4.8,0.,4.8,0.,4.8
1979-03-08 15:20:16.260 ,2,0,0.,4.8,0.,4.8,0.,4.8,0.,4.8
1979-03-08 15:20:21.050 ,1,0,1.,4.8,0.,4.8,0.,4.8,0.,4.8
1979-03-08 15:20:25.850 ,1,0,0.,4.8,0.,4.8,0.,4.8,0.,4.8
1979-03-08 15:20:30.650 ,1,0,1.,4.8,0.,4.8,0.,4.8,0.,4.8
1979-03-08 15:20:35.450 ,1,0,1.,4.8,0.,4.8,0.,4.8,0.,4.8
1979-03-08 15:20:40.260 ,1,0,1.,4.8,0.,4.8,0.,4.8,0.,4.8
1979-03-08 15:20:45.050 ,0,0,0.,4.8,0.,4.8,0.,4.8,0.,4.8
1979-03-08 15:20:49.850 ,0,0,0.,4.8,0.,4.8,0.,4.8,0.,4.8
1979-03-08 15:20:54.650 ,0,0,0.,4.8,0.,4.8,0.,4.8,1.,4.8
1979-03-08 15:20:59.450 ,0,0,0.,4.8,0.,4.8,0.,4.8,0.,4.8
1979-03-08 15:21:04.260 ,0,0,2.,4.8,0.,4.8,0.,4.8,0.,4.8
1979-03-08 15:21:09.050 ,0,0,0.,4.8,0.,4.8,0.,4.8,0.,4.8
1979-03-08 15:21:13.850 ,0,0,1.,4.8,0.,4.8,0.,4.8,0.,4.8
1979-03-08 15:21:18.650 ,0,0,1.,4.8,0.,4.8,0.,4.8,0.,4.8
1979-03-08 15:21:23.450 ,0,0,0.,4.8,0.,4.8,0.,4.8,0.,4.8
1979-03-08 15:21:28.260 ,0,0,1.,4.8,0.,4.8,0.,4.8,0.,4.8
1979-03-08 15:21:33.050 ,1,0,1.,4.8,0.,4.8,0.,4.8,0.,4.8
1979-03-08 15:21:37.850 ,1,0,1.,4.8,0.,4.8,0.,4.8,1.,4.8
1979-03-08 15:21:42.650 ,1,0,1.,4.8,0.,4.8,0.,4.8,0.,4.8
1979-03-08 15:21:47.450 ,1,0,1.,4.8,0.,4.8,0.,4.8,0.,4.8
1979-03-08 15:21:52.260 ,1,0,2.,4.8,0.,4.8,0.,4.8,0.,4.8
1979-03-08 15:21:57.050 ,2,0,3.,4.8,0.,4.8,0.,4.8,0.,4.8
1979-03-08 15:22:01.850 ,2,0,5.,4.8,0.,4.8,0.,4.8,0.,4.8
1979-03-08 15:22:06.650 ,2,0,1.,4.8,0.,4.8,0.,4.8,0.,4.8
1979-03-08 15:22:11.450 ,2,0,1.,4.8,0.,4.8,0.,4.8,0.,4.8
1979-03-08 15:22:16.260 ,2,0,2.,4.8,0.,4.8,0.,4.8,0.,4.8
1979-03-08 15:22:21.050 ,3,0,0.,4.8,0.,4.8,0.,4.8,0.,4.8
1979-03-08 15:22:25.850 ,3,0,1.,4.8,0.,4.8,0.,4.8,0.,4.8
1979-03-08 15:22:30.650 ,3,0,0.,4.8,0.,4.8,0.,4.8,0.,4.8
1979-03-08 15:22:35.450 ,3,0,4.,4.8,0.,4.8,0.,4.8,0.,4.8
1979-03-08 15:22:40.260 ,3,0,0.,4.8,0.,4.8,0.,4.8,0.,4.8
1979-03-08 15:22:45.050 ,4,0,1.,4.8,0.,4.8,0.,4.8,0.,4.8
1979-03-08 15:22:49.850 ,4,0,1.,4.8,0.,4.8,0.,4.8,0.,4.8
1979-03-08 15:22:54.650 ,4,0,2.,4.8,0.,4.8,0.,4.8,0.,4.8
1979-03-08 15:22:59.450 ,4,0,0.,4.8,0.,4.8,0.,4.8,0.,4.8
1979-03-08 15:23:04.260 ,4,0,3.,4.8,0.,4.8,0.,4.8,0.,4.8
1979-03-08 15:23:09.050 ,5,0,1.,4.8,0.,4.8,0.,4.8,0.,4.8
1979-03-08 15:23:13.850 ,5,0,1.,4.8,0.,4.8,0.,4.8,0.,4.8
1979-03-08 15:23:18.650 ,5,0,1.,4.8,0.,4.8,0.,4.8,0.,4.8
1979-03-08 15:23:23.450 ,5,0,0.,4.8,0.,4.8,0.,4.8,0.,4.8
1979-03-08 15:23:28.260 ,5,0,0.,4.8,0.,4.8,0.,4.8,0.,4.8
1979-03-08 15:23:33.050 ,6,0,1.,4.8,0.,4.8,0.,4.8,0.,4.8
1979-03-08 15:23:37.850 ,6,0,1.,4.8,0.,4.8,0.,4.8,0.,4.8
1979-03-08 15:23:42.650 ,6,0,1.,4.8,0.,4.8,0.,4.8,0.,4.8
1979-03-08 15:23:47.450 ,6,0,1.,4.8,0.,4.8,0.,4.8,0.,4.8
1979-03-08 15:23:52.260 ,6,0,0.,4.8,0.,4.8,0.,4.8,0.,4.8
1979-03-08 15:23:57.060 ,7,0,1.,4.8,0.,4.8,0.,4.8,0.,4.8
1979-03-08 15:24:01.860 ,7,0,2.,4.8,0.,4.8,0.,4.8,0.,4.8
1979-03-08 15:24:06.660 ,7,0,0.,4.8,0.,4.8,0.,4.8,0.,4.8
1979-03-08 15:24:11.460 ,7,0,0.,4.8,0.,4.8,0.,4.8,0.,4.8
1979-03-08 15:24:16.260 ,7,0,1.,4.8,0.,4.8,0.,4.8,0.,4.8
1979-03-08 15:24:21.060 ,7,0,0.,4.8,0.,4.8,0.,4.8,0.,4.8
1979-03-08 15:24:25.860 ,7,0,0.,4.8,0.,4.8,0.,4.8,0.,4.8
1979-03-08 15:24:30.660 ,7,0,0.,4.8,0.,4.8,0.,4.8,0.,4.8
1979-03-08 15:24:35.460 ,7,0,0.,4.8,0.,4.8,0.,4.8,0.,4.8
1979-03-08 15:24:40.260 ,7,0,1.,4.8,0.,4.8,0.,4.8,0.,4.8
1979-03-08 15:24:45.060 ,6,0,0.,4.8,0.,4.8,0.,4.8,0.,4.8
1979-03-08 15:24:49.860 ,6,0,0.,4.8,0.,4.8,0.,4.8,0.,4.8
1979-03-08 15:24:54.660 ,6,0,0.,4.8,0.,4.8,0.,4.8,0.,4.8
1979-03-08 15:24:59.460 ,6,0,0.,4.8,0.,4.8,0.,4.8,0.,4.8
1979-03-08 15:25:04.260 ,6,0,3.,4.8,0.,4.8,0.,4.8,0.,4.8
1979-03-08 15:25:09.060 ,5,0,0.,4.8,0.,4.8,0.,4.8,0.,4.8
1979-03-08 15:25:13.860 ,5,0,0.,4.8,0.,4.8,0.,4.8,0.,4.8
1979-03-08 15:25:18.660 ,5,0,1.,4.8,0.,4.8,0.,4.8,0.,4.8
1979-03-08 15:25:23.460 ,5,0,1.,4.8,0.,4.8,0.,4.8,0.,4.8
1979-03-08 15:25:28.260 ,5,0,0.,4.8,0.,4.8,0.,4.8,0.,4.8
1979-03-08 15:25:33.060 ,4,0,1.,4.8,0.,4.8,0.,4.8,0.,4.8
1979-03-08 15:25:37.860 ,4,0,0.,4.8,0.,4.8,0.,4.8,0.,4.8
1979-03-08 15:25:42.660 ,4,0,1.,4.8,0.,4.8,0.,4.8,0.,4.8
1979-03-08 15:25:47.460 ,4,0,1.,4.8,0.,4.8,0.,4.8,0.,4.8
1979-03-08 15:25:52.260 ,4,0,2.,4.8,0.,4.8,0.,4.8,0.,4.8
1979-03-08 15:25:57.060 ,3,0,0.,4.8,0.,4.8,0.,4.8,0.,4.8
1979-03-08 15:26:01.860 ,3,0,4.,4.8,0.,4.8,0.,4.8,0.,4.8
1979-03-08 15:26:06.660 ,3,0,0.,4.8,0.,4.8,0.,4.8,0.,4.8
1979-03-08 15:26:11.460 ,3,0,0.,4.8,0.,4.8,0.,4.8,0.,4.8
1979-03-08 15:26:16.260 ,3,0,0.,4.8,0.,4.8,0.,4.8,0.,4.8
1979-03-08 15:26:21.060 ,2,0,0.,4.8,0.,4.8,0.,4.8,0.,4.8
1979-03-08 15:26:25.860 ,2,0,1.,4.8,0.,4.8,0.,4.8,0.,4.8
1979-03-08 15:26:30.660 ,2,0,0.,4.8,0.,4.8,0.,4.8,0.,4.8
1979-03-08 15:26:35.460 ,2,0,1.,4.8,0.,4.8,0.,4.8,0.,4.8
1979-03-08 15:26:40.260 ,2,0,0.,4.8,0.,4.8,0.,4.8,0.,4.8
1979-03-08 15:26:45.060 ,1,0,1.,4.8,0.,4.8,0.,4.8,0.,4.8
1979-03-08 15:26:49.860 ,1,0,1.,4.8,0.,4.8,0.,4.8,0.,4.8
1979-03-08 15:26:54.660 ,1,0,1.,4.8,0.,4.8,0.,4.8,0.,4.8
1979-03-08 15:26:59.460 ,1,0,0.,4.8,0.,4.8,0.,4.8,0.,4.8
1979-03-08 15:27:04.260 ,1,0,2.,4.8,0.,4.8,0.,4.8,0.,4.8
1979-03-08 15:27:09.060 ,1,1,,0,,0,,0,,0
1979-03-08 15:27:13.860 ,1,1,,0,,0,,0,,0
1979-03-08 15:27:18.660 ,1,1,,0,,0,,0,,0
1979-03-08 15:27:23.460 ,1,1,,0,,0,,0,,0
1979-03-08 15:27:28.260 ,1,1,,0,,0,,0,,0
1979-03-08 15:27:33.060 ,0,0,1.,4.8,0.,4.8,0.,4.8,0.,4.8
1979-03-08 15:27:37.860 ,0,0,0.,4.8,0.,4.8,0.,4.8,0.,4.8
1979-03-08 15:27:42.660 ,0,0,0.,4.8,0.,4.8,0.,4.8,0.,4.8
1979-03-08 15:27:47.460 ,0,0,0.,4.8,0.,4.8,0.,4.8,0.,4.8
1979-03-08 15:27:52.260 ,0,0,0.,4.8,0.,4.8,0.,4.8,0.,4.8
1979-03-08 15:27:57.060 ,1,0,1.,4.8,0.,4.8,0.,4.8,0.,4.8
1979-03-08 15:28:01.860 ,1,0,1.,4.8,0.,4.8,0.,4.8,0.,4.8
1979-03-08 15:28:06.660 ,1,0,1.,4.8,0.,4.8,0.,4.8,0.,4.8
1979-03-08 15:28:11.460 ,1,0,0.,4.8,0.,4.8,0.,4.8,0.,4.8
1979-03-08 15:28:16.260 ,1,0,0.,4.8,0.,4.8,0.,4.8,0.,4.8
1979-03-08 15:28:21.060 ,2,0,1.,4.8,0.,4.8,0.,4.8,0.,4.8
1979-03-08 15:28:25.860 ,2,0,0.,4.8,0.,4.8,0.,4.8,0.,4.8
1979-03-08 15:28:30.660 ,2,0,0.,4.8,0.,4.8,0.,4.8,0.,4.8
1979-03-08 15:28:35.460 ,2,0,2.,4.8,0.,4.8,0.,4.8,0.,4.8
1979-03-08 15:28:40.260 ,2,0,0.,4.8,0.,4.8,0.,4.8,0.,4.8
1979-03-08 15:28:45.060 ,3,0,0.,4.8,0.,4.8,0.,4.8,0.,4.8
1979-03-08 15:28:49.860 ,3,0,0.,4.8,0.,4.8,0.,4.8,0.,4.8
1979-03-08 15:28:54.660 ,3,0,0.,4.8,0.,4.8,0.,4.8,0.,4.8
1979-03-08 15:28:59.460 ,3,0,0.,4.8,0.,4.8,0.,4.8,0.,4.8
1979-03-08 15:29:04.260 ,3,0,0.,4.8,0.,4.8,0.,4.8,0.,4.8
1979-03-08 15:29:09.060 ,4,0,0.,4.8,0.,4.8,0.,4.8,0.,4.8
1979-03-08 15:29:13.860 ,4,0,1.,4.8,0.,4.8,0.,4.8,0.,4.8
1979-03-08 15:29:18.660 ,4,0,4.,4.8,0.,4.8,0.,4.8,0.,4.8
1979-03-08 15:29:23.460 ,4,0,1.,4.8,0.,4.8,0.,4.8,0.,4.8
1979-03-08 15:29:28.260 ,4,0,1.,4.8,0.,4.8,0.,4.8,0.,4.8
1979-03-08 15:29:33.060 ,5,0,5.,4.8,0.,4.8,0.,4.8,0.,4.8
1979-03-08 15:29:37.860 ,5,0,2.,4.8,0.,4.8,0.,4.8,0.,4.8
1979-03-08 15:29:42.660 ,5,0,0.,4.8,0.,4.8,0.,4.8,0.,4.8
1979-03-08 15:29:47.460 ,5,0,0.,4.8,0.,4.8,0.,4.8,0.,4.8
1979-03-08 15:29:52.260 ,5,0,2.,4.8,0.,4.8,0.,4.8,0.,4.8
1979-03-08 15:29:57.060 ,6,0,0.,4.8,0.,4.8,0.,4.8,0.,4.8
1979-03-08 15:30:01.860 ,6,0,1.,4.8,0.,4.8,0.,4.8,0.,4.8
1979-03-08 15:30:06.660 ,6,0,1.,4.8,0.,4.8,0.,4.8,0.,4.8
1979-03-08 15:30:11.460 ,6,0,0.,4.8,0.,4.8,0.,4.8,0.,4.8
1979-03-08 15:30:16.260 ,6,0,0.,4.8,0.,4.8,0.,4.8,0.,4.8
1979-03-08 15:30:21.060 ,7,0,0.,4.8,0.,4.8,0.,4.8,0.,4.8
1979-03-08 15:30:25.860 ,7,0,1.,4.8,0.,4.8,0.,4.8,0.,4.8
1979-03-08 15:30:30.660 ,7,0,1.,4.8,0.,4.8,0.,4.8,0.,4.8
1979-03-08 15:30:35.460 ,7,0,0.,4.8,0.,4.8,0.,4.8,0.,4.8
1979-03-08 15:30:40.260 ,7,0,0.,4.8,0.,4.8,0.,4.8,0.,4.8
1979-03-08 15:30:45.060 ,7,0,0.,4.8,0.,4.8,0.,4.8,0.,4.8
1979-03-08 15:30:49.860 ,7,0,0.,4.8,0.,4.8,0.,4.8,0.,4.8
1979-03-08 15:30:54.660 ,7,0,0.,4.8,0.,4.8,0.,4.8,0.,4.8
1979-03-08 15:30:59.460 ,7,0,0.,4.8,0.,4.8,0.,4.8,0.,4.8
1979-03-08 15:31:04.260 ,7,0,1.,4.8,0.,4.8,0.,4.8,0.,4.8
1979-03-08 15:31:09.060 ,6,0,0.,4.8,0.,4.8,0.,4.8,0.,4.8
1979-03-08 15:31:13.860 ,6,0,0.,4.8,0.,4.8,0.,4.8,0.,4.8
1979-03-08 15:31:18.660 ,6,0,0.,4.8,0.,4.8,0.,4.8,0.,4.8
1979-03-08 15:31:23.460 ,6,0,0.,4.8,0.,4.8,0.,4.8,0.,4.8
1979-03-08 15:31:28.260 ,6,0,0.,4.8,0.,4.8,0.,4.8,0.,4.8
1979-03-08 15:31:33.060 ,5,0,0.,4.8,0.,4.8,0.,4.8,0.,4.8
1979-03-08 15:31:37.860 ,5,0,0.,4.8,0.,4.8,0.,4.8,0.,4.8
1979-03-08 15:31:42.660 ,5,0,3.,4.8,0.,4.8,0.,4.8,0.,4.8
1979-03-08 15:31:47.460 ,5,0,0.,4.8,0.,4.8,0.,4.8,0.,4.8
1979-03-08 15:31:52.260 ,5,0,2.,4.8,0.,4.8,0.,4.8,1.,4.8
1979-03-08 15:31:57.060 ,4,0,1.,4.8,0.,4.8,0.,4.8,0.,4.8
1979-03-08 15:32:01.860 ,4,0,2.,4.8,0.,4.8,0.,4.8,0.,4.8
1979-03-08 15:32:06.660 ,4,0,3.,4.8,0.,4.8,0.,4.8,0.,4.8
1979-03-08 15:32:11.460 ,4,0,5.,4.8,0.,4.8,0.,4.8,0.,4.8
1979-03-08 15:32:16.260 ,4,0,1.,4.8,0.,4.8,0.,4.8,0.,4.8
1979-03-08 15:32:21.060 ,3,0,1.,4.8,0.,4.8,0.,4.8,0.,4.8
1979-03-08 15:32:25.860 ,3,0,1.,4.8,0.,4.8,0.,4.8,0.,4.8
1979-03-08 15:32:30.660 ,3,0,2.,4.8,0.,4.8,0.,4.8,0.,4.8
1979-03-08 15:32:35.460 ,3,0,0.,4.8,0.,4.8,0.,4.8,0.,4.8
1979-03-08 15:32:40.260 ,3,0,0.,4.8,0.,4.8,0.,4.8,0.,4.8
1979-03-08 15:32:45.060 ,2,0,1.,4.8,0.,4.8,0.,4.8,0.,4.8
1979-03-08 15:32:49.860 ,2,0,2.,4.8,0.,4.8,0.,4.8,0.,4.8
1979-03-08 15:32:54.660 ,2,0,2.,4.8,0.,4.8,0.,4.8,0.,4.8
1979-03-08 15:32:59.460 ,2,0,1.,4.8,0.,4.8,0.,4.8,0.,4.8
1979-03-08 15:33:04.260 ,2,0,1.,4.8,0.,4.8,0.,4.8,0.,4.8
1979-03-08 15:33:09.060 ,1,0,1.,4.8,0.,4.8,0.,4.8,0.,4.8
1979-03-08 15:33:13.860 ,1,0,1.,4.8,0.,4.8,0.,4.8,0.,4.8
1979-03-08 15:33:18.660 ,1,0,2.,4.8,0.,4.8,0.,4.8,0.,4.8
1979-03-08 15:33:23.460 ,1,0,0.,4.8,0.,4.8,0.,4.8,0.,4.8